Flushing, NY

4:49 PM EST on January 17, 2017 (GMT -0500)
La Guardia

Weather History for KLGA - September, 2012

Change the Weather History Date:

Saturday, September 1, 2012

  Actual Average Record
Temperature  
Mean Temperature 82 °F 74 °F  
Max Temperature 89 °F 81 °F 96 °F (2010)
Min Temperature 75 °F 67 °F 55 °F (1967)
Degree Days  
Heating Degree Days 0 0  
Month to date heating degree days 0 0  
Since 1 July heating degree days 0 1  
Cooling Degree Days 17 9  
Month to date cooling degree days 17 9  
Year to date cooling degree days 1314 1042  
Growing Degree Days 32 (Base 50)    
Moisture  
Dew Point 65 °F    
Average Humidity 62    
Maximum Humidity 79    
Minimum Humidity 44    
Precipitation  
Precipitation 0.00 in 0.11 in 1.20 in (1952)
Month to date precipitation 0.00 0.11  
Year to date precipitation 23.61 30.36  
Snow  
Snow 0.00 in 0.00 in - ()
Month to date snowfall 0.0 0.0  
Since 1 July snowfall 0.0 0.0  
Snow Depth 0.00 in    
Sea Level Pressure  
Sea Level Pressure 29.98 in    
Wind  
Wind Speed 11 mph (North)    
Max Wind Speed 20 mph    
Max Gust Speed 24 mph    
Visibility 10 miles    
Events      
T = Trace of Precipitation, MM = Missing Value Source: NWS Daily Summary

Daily Weather History Graph

Daily Weather History Graph

Search for Another Location

Airport or City:

Trip Planner

Search our weather history database for the weather conditions in past years. The results will help you decide how hot, cold, wet, or windy it might be!

Date:

Astronomy

Sep. 01, 2012 Rise Set
Actual Time 6:22 AM EDT 7:27 PM EDT
Civil Twilight 5:54 AM EDT 7:55 PM EDT
Nautical Twilight 5:21 AM EDT 8:28 PM EDT
Astronomical Twilight 4:46 AM EDT 9:03 PM EDT
Moon 7:41 PM EDT (9/1) 7:28 AM EDT (9/1)
Length of Visible Light 14h 00m
Length of Day
13h 04m
Full, 99% of the Moon is Illuminated
Sep 1
Full
Sep 8
Last Quarter
Sep 15
New
Sep 22
First Quarter
Sep 29
Full

Hourly Weather History & Observations

Time (EDT) Temp. Heat Index Dew Point Humidity Pressure Visibility Wind Dir Wind Speed Gust Speed Precip Events Conditions
12:51 AM 84.0 °F 84.0 °F 60.1 °F 44% 29.91 in 10.0 mi West 13.8 mph 20.7 mph N/A   Clear
1:51 AM 84.0 °F 84.0 °F 60.1 °F 44% 29.92 in 10.0 mi West 13.8 mph 21.9 mph N/A   Clear
2:51 AM 82.9 °F 83.3 °F 61.0 °F 47% 29.91 in 10.0 mi West 10.4 mph - N/A   Clear
3:51 AM 82.0 °F 82.7 °F 61.0 °F 49% 29.92 in 10.0 mi WNW 10.4 mph - N/A   Clear
4:51 AM 81.0 °F 81.7 °F 61.0 °F 50% 29.93 in 10.0 mi WNW 9.2 mph - N/A   Clear
5:51 AM 81.0 °F 82.2 °F 63.0 °F 54% 29.94 in 10.0 mi WNW 16.1 mph 21.9 mph N/A   Scattered Clouds
6:51 AM 80.1 °F 81.7 °F 64.0 °F 58% 29.96 in 10.0 mi NW 15.0 mph - N/A   Mostly Cloudy
7:51 AM 79.0 °F - 64.9 °F 62% 29.97 in 10.0 mi NW 16.1 mph - N/A   Mostly Cloudy
8:51 AM 80.1 °F 81.7 °F 64.0 °F 58% 29.97 in 10.0 mi NW 15.0 mph - N/A   Mostly Cloudy
9:51 AM 82.9 °F 84.4 °F 64.0 °F 53% 29.99 in 10.0 mi NNW 12.7 mph - N/A   Mostly Cloudy
10:51 AM 84.0 °F 85.4 °F 64.0 °F 51% 30.00 in 10.0 mi North 10.4 mph - N/A   Mostly Cloudy
11:51 AM 84.9 °F 86.6 °F 64.9 °F 51% 29.99 in 10.0 mi North 8.1 mph - N/A   Mostly Cloudy
12:51 PM 87.1 °F 89.2 °F 66.0 °F 49% 29.99 in 10.0 mi North 10.4 mph - N/A   Scattered Clouds
1:51 PM 86.0 °F 87.6 °F 64.9 °F 49% 29.98 in 10.0 mi ENE 5.8 mph - N/A   Scattered Clouds
2:51 PM 88.0 °F 89.3 °F 64.0 °F 45% 29.98 in 10.0 mi NE 10.4 mph - N/A   Mostly Cloudy
3:51 PM 84.9 °F 87.6 °F 66.9 °F 55% 29.97 in 10.0 mi SE 11.5 mph 19.6 mph N/A   Mostly Cloudy
4:51 PM 84.0 °F 86.3 °F 66.0 °F 55% 29.98 in 10.0 mi SSE 11.5 mph - N/A   Scattered Clouds
5:51 PM 82.0 °F 84.5 °F 66.9 °F 60% 29.98 in 10.0 mi SE 12.7 mph - N/A   Scattered Clouds
6:51 PM 80.1 °F 82.3 °F 66.9 °F 64% 29.99 in 10.0 mi SSE 9.2 mph - N/A   Scattered Clouds
7:51 PM 79.0 °F - 66.9 °F 66% 30.01 in 10.0 mi SE 9.2 mph - N/A   Mostly Cloudy
8:51 PM 77.0 °F - 68.0 °F 74% 30.04 in 10.0 mi SE 8.1 mph - N/A   Mostly Cloudy
9:51 PM 75.9 °F - 68.0 °F 76% 30.05 in 10.0 mi SE 10.4 mph - N/A   Mostly Cloudy
10:28 PM 75.2 °F - 69.8 °F 83% 30.06 in 10.0 mi ESE 11.5 mph - N/A   Mostly Cloudy
10:51 PM 75.0 °F - 68.0 °F 79% 30.06 in 10.0 mi SE 9.2 mph - N/A   Mostly Cloudy
11:51 PM 75.9 °F - 68.0 °F 76% 30.07 in 10.0 mi ESE 8.1 mph - N/A   Mostly Cloudy